Location: Unspecified
(45.3712°N, 0.6436°E)
Time: 01:07:14
(UTC+01:00)

ISS - Visible Passes

Search period start: 16 February 2019 00:00
Search period end: 26 February 2019 00:00
Orbit: 403 x 411 km, 51.6° (Epoch: 16 February)

Date Brightness Start Highest point End Pass type
(mag) Time Alt. Az. Time Alt. Az. Time Alt. Az.
23 Feb -0.9 06:32:17 10° S 06:34:13 15° SE 06:36:09 10° E visible
24 Feb -3.1 07:15:38 10° SW 07:18:50 56° SE 07:22:03 10° ENE visible
25 Feb -2.2 06:24:30 10° SSW 06:27:24 32° SE 06:30:22 10° ENE visible
